Voltar ao catálogo

GONETS M 20

AtivoComunicaçõesPO
NORAD 47227·PAYLOAD·🇷🇺 Russia

Lançado Dec 3, 2020 de Plesetsk Cosmodrome

Loading…

Próximas Passagens (próximas 24 horas)

TLE

AtualizadoSource: Space-Track

Época: Sep 14, 2026, 14:22 UTC

1 47227U 20091A   26257.59869637  .00000044  00000-0  24830-3 0  9997
2 47227  82.4986 246.8466 0020712 349.4794  10.5850 12.42896376262185

Acompanhe GONETS M 20 em tempo real com AllMySat

Download on the App Store